Location: *
(43.6428°N, 11.5461°E)
Time: 15:12:55
(UTC+00:00)

Cosmos 1356 - Pass Details

Date: 21 October 2019
Orbit: 447 x 449 km, 81.1° (Epoch: 14 November)

Event Time Altitude Azimuth Distance (km) Brightness Sun altitude
Rises 17:03:04 0° 190° (S) 2,434 7.4 -8.2°
Reaches altitude 10° 17:05:07 10° 192° (SSW) 1,568 6.4 -8.6°
Maximum altitude 17:08:33 83° 279° (W) 457 3.5 -9.2°
Drops below altitude 10° 17:12:00 10° 9° (N) 1,583 6.0 -9.8°
Sets 17:14:05 0° 10° (N) 2,460 7.0 -10.2°
